Quakertown, PA

2:17 AM EDT on March 25, 2017 (GMT -0400)
Quakertown

Weather History for KUKT - June, 2013

Change the Weather History Date:

Thursday, June 6, 2013

  Actual Average (KABE) Record (KABE)
Temperature  
Mean Temperature 61 °F -  
Max Temperature 71 °F 76 °F 100 °F (1925)
Min Temperature 51 °F 56 °F 42 °F (1945)
Degree Days  
Heating Degree Days 4    
Growing Degree Days 11 (Base 50)    
Moisture  
Dew Point 55 °F    
Average Humidity 81    
Maximum Humidity 100    
Minimum Humidity 46    
Precipitation  
Precipitation 0.14 in - - ()
Sea Level Pressure  
Sea Level Pressure 30.07 in    
Wind  
Wind Speed 3 mph (ESE)    
Max Wind Speed 13 mph    
Max Gust Speed 16 mph    
Visibility 9 miles    
Events      
Averages and records for this station are not official NWS values.
T = Trace of Precipitation, MM = Missing Value Source: NWS Daily Summary

Daily Weather History Graph

Daily Weather History Graph

Search for Another Location

Airport or City:

Trip Planner

Search our weather history database for the weather conditions in past years. The results will help you decide how hot, cold, wet, or windy it might be!

Date:

Astronomy

Jun. 06, 2013 Rise Set
Actual Time 5:31 AM EDT 8:29 PM EDT
Civil Twilight 4:58 AM EDT 9:01 PM EDT
Nautical Twilight 4:17 AM EDT 9:43 PM EDT
Astronomical Twilight 3:29 AM EDT 10:31 PM EDT
Moon 4:12 AM EDT (6/6) 6:48 PM EDT (6/6)
Length of Visible Light 16h 03m
Length of Day
14h 57m
Waning Crescent, 4% of the Moon is Illuminated
Jun 6
Waning Crescent
Jun 8
New
Jun 16
First Quarter
Jun 23
Full
Jun 30
Last Quarter

Hourly Weather History & Observations

Time (EDT) Temp. Dew Point Humidity Pressure Visibility Wind Dir Wind Speed Gust Speed Precip Events Conditions
12:10 AM 60.8 °F 48.2 °F 63% 30.14 in 10.0 mi Calm Calm - N/A   Clear
12:30 AM 59.0 °F 48.2 °F 67% 30.14 in 10.0 mi Calm Calm - N/A   Clear
12:50 AM 57.2 °F 50.0 °F 77% 30.14 in 10.0 mi Calm Calm - N/A   Clear
1:10 AM 57.2 °F 50.0 °F 77% 30.14 in 10.0 mi Calm Calm - N/A   Clear
1:30 AM 55.4 °F 50.0 °F 82% 30.15 in 10.0 mi Calm Calm - N/A   Clear
1:50 AM 53.6 °F 50.0 °F 88% 30.15 in 10.0 mi Calm Calm - N/A   Clear
2:10 AM 53.6 °F 50.0 °F 88% 30.14 in 10.0 mi Calm Calm - N/A   Clear
2:30 AM 53.6 °F 50.0 °F 88% 30.14 in 10.0 mi Calm Calm - N/A   Clear
2:50 AM 53.6 °F 50.0 °F 88% 30.13 in 10.0 mi Calm Calm - N/A   Clear
3:10 AM 51.8 °F 48.2 °F 88% 30.13 in 10.0 mi Calm Calm - N/A   Clear
3:30 AM 51.8 °F 48.2 °F 88% 30.13 in 10.0 mi Calm Calm - N/A   Clear
3:50 AM 53.6 °F 50.0 °F 88% 30.12 in 10.0 mi Calm Calm - N/A   Clear
4:10 AM 53.6 °F 50.0 °F 88% 30.12 in 10.0 mi Calm Calm - N/A   Clear
4:30 AM 53.6 °F 50.0 °F 88% 30.12 in 10.0 mi Calm Calm - N/A   Clear
4:50 AM 53.6 °F 50.0 °F 88% 30.12 in 10.0 mi Calm Calm - N/A   Clear
5:10 AM 51.8 °F 50.0 °F 94% 30.11 in 10.0 mi Calm Calm - N/A   Clear
5:30 AM 53.6 °F 51.8 °F 94% 30.12 in 10.0 mi NNE 3.5 mph - N/A   Partly Cloudy
5:50 AM 53.6 °F 51.8 °F 94% 30.11 in 10.0 mi Calm Calm - N/A   Mostly Cloudy
6:10 AM 53.6 °F 53.6 °F 100% 30.11 in 10.0 mi Calm Calm - N/A   Scattered Clouds
6:30 AM 55.4 °F 53.6 °F 94% 30.12 in 9.0 mi Calm Calm - N/A   Clear
6:50 AM 55.4 °F 53.6 °F 94% 30.12 in 8.0 mi Calm Calm - N/A   Clear
7:10 AM 57.2 °F 55.4 °F 94% 30.12 in 8.0 mi ENE 3.5 mph - N/A   Clear
7:30 AM 59.0 °F 55.4 °F 88% 30.12 in 9.0 mi East 3.5 mph - N/A   Clear
7:50 AM 59.0 °F 55.4 °F 88% 30.12 in 10.0 mi East 3.5 mph - N/A   Clear
8:10 AM 59.0 °F 55.4 °F 88% 30.12 in 10.0 mi East 4.6 mph - N/A   Clear
8:30 AM 62.6 °F 55.4 °F 77% 30.12 in 10.0 mi ESE 6.9 mph - N/A   Clear
8:50 AM 59.0 °F 55.4 °F 88% 30.12 in 9.0 mi East 6.9 mph - N/A   Clear
9:10 AM 62.6 °F 55.4 °F 77% 30.12 in 8.0 mi ESE 3.5 mph - N/A   Partly Cloudy
9:30 AM 60.8 °F 55.4 °F 82% 30.11 in 10.0 mi ESE 8.1 mph - N/A   Scattered Clouds
9:50 AM 62.6 °F 55.4 °F 77% 30.11 in 10.0 mi SE 8.1 mph - N/A   Clear
10:10 AM 62.6 °F 55.4 °F 77% 30.10 in 10.0 mi East 4.6 mph - N/A   Clear
10:30 AM 62.6 °F 55.4 °F 77% 30.10 in 10.0 mi East 6.9 mph - N/A   Clear
10:50 AM 64.4 °F 55.4 °F 73% 30.09 in 10.0 mi East 5.8 mph - N/A   Clear
11:10 AM 64.4 °F 55.4 °F 73% 30.09 in 10.0 mi SE 6.9 mph - N/A   Clear
11:30 AM 64.4 °F 55.4 °F 73% 30.08 in 10.0 mi ESE 8.1 mph - N/A   Clear
11:50 AM 66.2 °F 55.4 °F 68% 30.08 in 10.0 mi SE 8.1 mph - N/A   Clear
12:10 PM 68.0 °F 55.4 °F 64% 30.08 in 10.0 mi SE 9.2 mph - N/A   Partly Cloudy
12:30 PM 68.0 °F 55.4 °F 64% 30.08 in 10.0 mi SE 6.9 mph - N/A   Partly Cloudy
12:50 PM 68.0 °F 53.6 °F 60% 30.07 in 10.0 mi SE 6.9 mph - N/A   Partly Cloudy
1:10 PM 68.0 °F 53.6 °F 60% 30.07 in 10.0 mi SE 9.2 mph - N/A   Clear
1:30 PM 71.6 °F 50.0 °F 46% 30.05 in 10.0 mi SE 10.4 mph - N/A   Clear
1:50 PM 69.8 °F 51.8 °F 53% 30.05 in 10.0 mi SE 8.1 mph - N/A   Partly Cloudy
2:10 PM 71.6 °F 51.8 °F 50% 30.05 in 10.0 mi SSE 6.9 mph - N/A   Partly Cloudy
2:30 PM 69.8 °F 48.2 °F 46% 30.05 in 10.0 mi SSE 10.4 mph - N/A   Clear
2:50 PM 69.8 °F 48.2 °F 46% 30.04 in 10.0 mi SSE 12.7 mph - N/A   Clear
3:10 PM 69.8 °F 50.0 °F 49% 30.04 in 10.0 mi SE 6.9 mph - N/A   Clear
3:30 PM 68.0 °F 53.6 °F 60% 30.03 in 10.0 mi SE 5.8 mph - N/A   Scattered Clouds
3:50 PM 68.0 °F 53.6 °F 60% 30.03 in 10.0 mi ESE 5.8 mph - N/A   Scattered Clouds
4:10 PM 66.2 °F 55.4 °F 68% 30.02 in 9.0 mi East 6.9 mph - N/A   Mostly Cloudy
4:30 PM 66.2 °F 57.2 °F 73% 30.01 in 10.0 mi ESE 5.8 mph - N/A   Mostly Cloudy
4:50 PM 66.2 °F 59.0 °F 78% 30.00 in 10.0 mi East 5.8 mph - N/A   Partly Cloudy
5:10 PM 66.2 °F 60.8 °F 83% 30.00 in 10.0 mi East 4.6 mph - N/A   Clear
5:30 PM 66.2 °F 62.6 °F 88% 30.01 in 10.0 mi Calm Calm - N/A   Scattered Clouds
5:50 PM 66.2 °F 60.8 °F 83% 30.01 in 5.0 mi ESE 3.5 mph - N/A   Mostly Cloudy
6:10 PM 64.4 °F 59.0 °F 83% 30.01 in 5.0 mi Calm Calm - N/A   Overcast
6:30 PM 64.4 °F 60.8 °F 88% 30.01 in 9.0 mi Calm Calm - 0.01 in   Mostly Cloudy
6:50 PM 64.4 °F 60.8 °F 88% 30.01 in 4.0 mi Calm Calm - 0.02 in   Overcast
7:10 PM 64.4 °F 62.6 °F 94% 30.01 in 4.0 mi Calm Calm - 0.02 in   Mostly Cloudy
7:30 PM 62.6 °F 62.6 °F 100% 30.01 in 3.0 mi Calm Calm - 0.04 in   Overcast
7:50 PM 62.6 °F 62.6 °F 100% 30.01 in 5.0 mi East 3.5 mph - 0.05 in   Overcast
8:10 PM 62.6 °F 62.6 °F 100% 30.01 in 6.0 mi ESE 3.5 mph - 0.01 in   Overcast
8:30 PM 62.6 °F 62.6 °F 100% 30.01 in 5.0 mi SE 4.6 mph - 0.02 in   Overcast
8:50 PM 62.6 °F 62.6 °F 100% 30.00 in 7.0 mi SE 8.1 mph - 0.03 in   Overcast
9:10 PM 62.6 °F 60.8 °F 94% 30.00 in 10.0 mi SE 9.2 mph 16.1 mph N/A   Mostly Cloudy
9:30 PM 62.6 °F 59.0 °F 88% 30.00 in 8.0 mi SE 9.2 mph - 0.01 in   Overcast
9:50 PM 60.8 °F 59.0 °F 94% 30.00 in 7.0 mi ESE 6.9 mph - 0.02 in   Overcast
10:10 PM 60.8 °F 59.0 °F 94% 29.99 in 7.0 mi ESE 8.1 mph - 0.01 in   Mostly Cloudy
10:30 PM 60.8 °F 59.0 °F 94% 30.00 in 9.0 mi East 5.8 mph - 0.01 in   Mostly Cloudy
10:50 PM 60.8 °F 59.0 °F 94% 30.00 in 10.0 mi ESE 6.9 mph - 0.01 in   Overcast
11:10 PM 59.0 °F 59.0 °F 100% 29.99 in 10.0 mi ESE 6.9 mph - N/A   Overcast
11:30 PM 59.0 °F 59.0 °F 100% 29.98 in 10.0 mi ESE 6.9 mph - N/A   Overcast
11:50 PM 59.0 °F 59.0 °F 100% 29.97 in 8.0 mi ESE 8.1 mph - 0.01 in   Overcast